Regional Weather Roundup
Issued by NWS

Home | Current Version | Previous Version | Text Only | Print | Product List | Glossary Off
Versions: 1 2 3 4 5 6 7 8 9 10 11 12 13 14 15 16 17 18 19 20 21 22 23 24 25 26 27 28 29 30 31 32 33 34 35 36 37 38 39 40 41 42 43 44 45 46 47 48 49 50

000
ASUS43 KLOT 230806
RWRIL

ILLINOIS REGIONAL WEATHER ROUNDUP
NATIONAL WEATHER SERVICE CHICAGO/ROMEOVILLE IL
300 AM CDT SAT AUG 23 2014

NOTE: "FAIR" INDICATES FEW OR NO CLOUDS BELOW 12,000 FEET WITH NO
SIGNIFICANT WEATHER AND/OR OBSTRUCTIONS TO VISIBILITY.

* THESE STATIONS ARE NOT UNDER NWS QUALITY CONTROL. THEY ALSO MAY NOT
  REPORT WEATHER SUCH AS PRECIPITATION OR FOG.

ILZ001-002-007-009-015-016-024-230900-
NORTHWEST ILLINOIS

CITY           SKY/WX    TMP DP  RH WIND       PRES   REMARKS
MOLINE         CLOUDY    75  73  93 CALM      29.94S
STERLING*      MOCLDY    73  72  94 E5        29.96S
SAVANNA*       MOCLDY    75  73  93 CALM      29.95S FOG
$$

ILZ003-004-008-010-011-017-018-230900-
NORTH CENTRAL ILLINOIS

CITY           SKY/WX    TMP DP  RH WIND       PRES   REMARKS
ROCKFORD       CLOUDY    75  72  90 CALM      29.99R
FREEPORT*      MOCLDY    73  72  96 CALM      30.00R FOG
DE KALB*       FOG       71  70  98 CALM      29.99S VSB 3/4
PERU*          MOCLDY    74  71  91 CALM      29.97F
$$

ILZ005-006-012>014-019>023-230900-
NORTHEAST ILLINOIS

CITY           SKY/WX    TMP DP  RH WIND       PRES   REMARKS
CHICAGO-OHARE  CLOUDY    74  70  87 N6        29.98R FOG
CHICAGO-MIDWAY MOCLDY    77  74  90 CALM      29.97R
AURORA         MOCLDY    73  70  90 CALM      29.98R FOG
LANSING*       FOG       72  71  99 CALM      29.97S VSB 1
JOLIET*        MOCLDY    73  71  94 CALM      29.98R FOG
WAUKEGAN       FOG       71  70  96 CALM      29.99R VSB 3/4
DUPAGE AIRPORT MOCLDY    73  71  93 CALM      29.97S
KANKAKEE*      PTCLDY    70  69  99 CALM      29.97S FOG
WHEELING       CLOUDY    74  72  93 NE3       30.00R FOG
MORRIS*        MOCLDY    74  74 100 CALM      29.97S FOG
ROMEOVILLE*    MOCLDY    72  72 100 CALM      29.98R FOG
NORTHERLY ISL    N/A     73  71  93 NW1         N/A
$$

LMZ740>746-230900-
SOUTHERN LAKE MICHIGAN

STATION/POSITION SKY/WX   TEMP    WIND        PRES    VSBY  WAVE
                          AIR SEA DIR/SP/G                  HT/PER
                          (F)     (DEG/KT/KT) (MB)    (MI)  (FT/S)
SOUTHERN BUOY              71 69   90/ 10/ 12 1014.8F         0
WAUKEGAN HARBOR            71      20/  2/  4   N/A
HARRISON CRIB              72      50/  4/  5   N/A
BURNHAM HARBOR             73     360/  3       N/A
CALUMET HARBOR             74      CALM  /  1 1013.7S
MICHIGAN CITY              75     180/  4/  5   N/A
MICHIGAN CITY 6N           73 73  200/  4/  4   N/A           0
ST. JOSEPH                 74 72  140/  2/  2   N/A           0
$$

ILZ025>027-034>036-040-047-049-050-058-095>099-230900-
WEST-CENTRAL ILLINOIS

CITY           SKY/WX    TMP DP  RH WIND       PRES   REMARKS
QUINCY         PTCLDY    77  74  90 E5        29.93S
GALESBURG*     PTCLDY    74  73  95 CALM      29.95S FOG
MACOMB*        PTCLDY    73  73 100 CALM      29.97R FOG
JACKSONVILLE*  CLEAR     78  76  94 E5        29.95S FOG     HX  80
PITTSFIELD*    PTCLDY    77  74  91 SE3       29.94S FOG
$$

ILZ028>032-037-038-041>044-048-051>054-059>061-230900-
CENTRAL ILLINOIS

CITY           SKY/WX    TMP DP  RH WIND       PRES   REMARKS
PONTIAC        PTCLDY    72  72 100 CALM      29.97S FOG
DECATUR        PTCLDY    76  73  91 SE6       29.96F
PEORIA         CLOUDY    77  72  84 E3        29.95S
LACON*         PTCLDY    73  71  93 CALM      29.95S
LINCOLN*       MOCLDY    77  75  93 CALM      29.92S FOG
SPRINGFIELD    CLEAR     78  75  90 S3        29.95R HX  81
TAYLORVILLE    MOCLDY    77  75  94 SE5       29.95S FOG
$$

ILZ033-039-045-046-055>057-062-063-230900-
EAST-CENTRAL ILLINOIS

CITY           SKY/WX    TMP DP  RH WIND       PRES   REMARKS
CHAMPAIGN      PTCLDY    72  71  97 NE5       29.97F FOG
DANVILLE*      HVY RAIN  70  70 100 CALM      29.95S
RANTOUL*       CLEAR     73  70  90 CALM      29.98S FOG
MATTOON        CLEAR     76  74  93 S5        29.95F FOG
PARIS*         PTCLDY    73  73 100 CALM      29.98S FOG
$$

ILZ079-100>102-230900-
SOUTHWEST ILLINOIS

CITY           SKY/WX    TMP DP  RH WIND       PRES   REMARKS
ALTON          CLEAR     76  76 100 E3        29.94S FOG
BELLEVILLE     CLEAR     75  75 100 CALM      29.93S
CAHOKIA*       CLEAR     77  76  96 CALM      29.92F
SPARTA*        CLOUDY    79  76  89 SW3       29.94F HX  83
$$

ILZ064>066-069>071-074>076-080>082-084>086-088>090-092>094-230900-
SOUTH-CENTRAL ILLINOIS

CITY           SKY/WX    TMP DP  RH WIND       PRES   REMARKS
CARBONDALE     PTCLDY    78  74  87 SW3       29.94F HX  81
CAIRO*         CLEAR     81  74  80 SW5       29.95S HX  86
MARION         MOCLDY    81  75  83 S3        29.95F HX  86
MT. VERNON     CLOUDY    75  72  88 CALM      29.96S
CENTRALIA*     MOCLDY    77  74  92 E3        29.95F FOG
SALEM*         PTCLDY    79  78  95 CALM      29.95F FOG     HX  84
METROPOLIS*    CLEAR     79  73  82 SW3       29.95F HX  82
$$

ILZ067-068-072-073-078-083-087-091-230900-
SOUTHEAST ILLINOIS

CITY           SKY/WX    TMP DP  RH WIND       PRES   REMARKS
LAWRENCEVILLE  PTCLDY    75  74  96 SE3       29.96F FOG
FLORA*         PTCLDY    76  75  98 CALM      29.96F FOG
FAIRFIELD*     MOCLDY    79  77  94 CALM      29.95F HX  83
HARRISBURG*    CLEAR     76  76 100 E3        29.96F
ROBINSON*      CLEAR     77  76  97 S3        29.97S FOG
CARMI*         PTCLDY    79  77  94 SE3       29.96S FOG     HX  83
$$

ABBREVIATIONS USED IN REMARKS
   TC - TEMPERATURE IN CELSIUS
  WCI - WIND CHILL INDEX
   HX - HEAT INDEX
  VSB - VISIBILITY
$$




USA.gov is the U.S. government's official web portal to all federal, state and local government web resources and services.